Theta_e
317 324 322 324 331 328 330 329 327 326 326 325 328 330 330 329 334 338 331 329 333 336 333 328 331 334 333 333 333 331 333 336 336 335 333 332 331 329 330 330 327 327 327 327 326 326 326 326 326
318 323 322 323 331 333 331 327 328 324 327 327 329 330 329 331 340 338 329 335 335 336 333 327 327 332 333 330 330 329 332 336 336 335 333 332 331 329 329 329 328 327 327 326 326 325 325 324 322
313 318 321 327 327 332 330 325 323 324 324 326 325 325 329 342 337 334 330 337 337 337 334 329 326 329 333 332 332 329 332 334 335 335 333 332 330 328 329 328 326 326 326 326 325 324 323 321 320
312 319 319 326 328 326 326 324 321 324 324 325 325 326 335 339 339 336 328 335 339 338 335 332 329 326 328 331 332 331 333 334 336 333 333 332 329 328 328 328 326 326 325 325 324 323 321 318 317
313 315 322 323 321 320 319 319 319 325 325 324 326 328 336 339 340 333 328 336 339 338 336 335 330 327 321 330 330 332 334 336 335 333 332 330 328 328 327 326 325 325 325 325 323 321 317 316 316
312 310 314 320 320 318 317 315 315 317 324 324 323 324 329 339 338 330 327 337 338 338 337 337 330 324 321 331 331 332 335 334 332 330 329 328 327 327 327 326 325 325 325 323 322 317 316 316 316
314 314 314 314 314 316 316 313 314 316 321 323 319 321 326 336 337 330 326 338 339 338 338 336 328 332 330 330 331 334 334 331 329 326 326 326 326 325 326 325 325 325 324 323 318 317 316 315 315
313 310 313 312 314 314 312 312 314 313 317 317 319 320 322 336 335 329 326 336 338 337 336 335 329 334 330 333 334 334 332 329 324 323 324 326 325 325 325 324 324 325 323 321 317 316 315 314 314
313 312 313 312 312 311 310 311 311 310 311 311 315 319 334 336 336 328 326 338 338 337 335 336 331 335 333 335 334 333 330 325 323 323 325 325 325 324 323 323 323 320 319 317 317 316 315 314 315
311 312 313 312 311 312 311 311 311 311 311 311 310 318 322 334 333 334 329 331 337 337 336 335 329 335 334 335 334 332 328 325 323 322 324 325 324 322 323 322 322 319 318 316 315 314 315 315 323
313 310 312 313 314 313 313 312 311 311 312 310 310 311 310 315 332 331 333 330 336 337 335 334 330 332 333 333 334 331 328 326 324 322 322 319 323 324 324 323 321 321 318 316 314 321 322 324 325
314 313 314 314 314 314 314 312 312 312 312 311 310 311 310 308 316 330 331 333 333 336 335 334 333 331 332 331 333 331 329 326 323 321 320 324 325 325 324 323 323 323 319 322 321 324 325 324 325
314 314 314 313 313 313 313 313 313 312 310 309 310 310 310 309 309 313 329 330 333 334 335 334 333 332 332 332 331 330 329 327 325 324 324 324 325 324 324 324 323 323 323 324 325 325 325 325 325
313 314 314 313 314 314 314 313 312 312 311 311 311 311 309 310 310 310 326 331 331 332 334 335 334 332 333 331 329 329 329 329 326 326 325 324 325 325 325 324 323 323 324 325 325 325 325 325 326
314 315 313 314 314 315 313 313 315 312 312 312 312 314 314 314 318 319 319 323 330 331 332 332 332 332 332 331 330 330 331 329 327 326 325 325 323 322 323 322 322 323 323 324 326 325 325 325 325
315 314 314 313 314 315 313 315 314 311 311 310 310 310 311 312 315 316 317 319 325 331 331 331 331 332 331 330 330 330 330 329 326 325 325 325 324 324 323 323 323 323 323 325 324 324 324 324 324
311 313 315 315 315 314 314 314 313 312 311 309 308 309 310 311 314 314 315 316 321 329 330 330 329 331 331 330 328 328 329 328 326 325 325 325 325 324 324 323 323 323 324 324 323 324 324 324 324
312 316 315 315 316 313 314 316 314 311 310 310 308 309 308 311 313 313 313 314 317 325 328 330 327 329 329 329 327 327 329 328 326 326 325 325 325 325 324 324 324 324 325 324 325 325 326 325 325
313 315 316 313 315 315 316 314 313 311 309 309 308 308 308 310 310 311 310 310 312 319 327 329 328 328 328 327 327 328 328 328 327 327 326 324 324 325 325 325 325 325 324 324 327 328 327 327 327
315 312 312 312 316 317 316 315 311 309 309 307 305 305 307 309 310 310 309 309 309 310 316 328 328 329 329 329 328 327 327 326 327 326 327 326 326 326 326 326 326 326 324 325 327 327 328 328 328
312 310 311 312 316 316 313 316 310 310 309 309 306 305 303 308 310 310 309 308 309 308 310 313 324 327 329 329 328 328 327 327 327 326 327 327 327 327 327 327 327 326 326 328 328 328 328 327 327
312 315 312 313 319 320 311 314 310 309 310 309 308 306 306 308 309 309 310 309 309 309 309 310 312 316 323 328 328 328 327 327 326 326 327 327 327 327 327 328 327 327 327 327 327 326 325 326 326
310 310 312 315 319 320 310 311 311 309 310 308 309 308 310 308 308 307 309 309 309 309 309 309 309 310 313 317 320 321 324 327 327 327 327 326 326 325 325 325 326 326 325 324 321 319 317 317 317
309 311 313 316 318 318 308 308 305 311 310 309 308 307 307 308 308 307 307 307 307 307 308 308 308 308 309 310 311 311 312 314 316 318 320 321 321 319 320 321 320 316 315 315 314 313 313 312 313
309 310 307 309 310 312 310 310 308 309 309 307 307 306 306 305 305 305 304 304 304 304 305 307 306 305 306 308 309 310 310 310 312 312 312 312 313 313 313 313 313 314 313 313 313 314 314 312 311
309 311 308 312 314 312 309 310 307 308 307 306 305 304 303 303 302 302 302 302 301 301 303 304 305 305 304 305 308 308 309 309 309 310 311 311 312 312 313 313 313 313 313 312 312 312 313 313 315
310 309 310 313 306 312 310 311 308 307 306 303 302 301 300 300 299 299 299 299 299 299 300 302 304 303 303 305 306 306 307 308 308 309 310 310 310 311 311 311 311 312 312 312 313 314 314 315 315
310 309 310 306 307 312 311 310 310 308 305 301 300 299 299 298 298 298 298 298 298 298 298 299 301 301 302 302 302 304 305 306 307 308 309 309 309 311 311 311 311 311 311 312 312 311 311 310 309
309 311 311 308 309 316 314 309 304 305 302 300 300 299 298 298 297 297 298 298 298 298 298 298 299 300 301 301 301 301 301 302 303 304 305 306 306 307 307 308 308 308 309 309 309 309 309 308 307
308 311 310 309 310 308 311 309 305 301 299 298 299 298 298 297 297 296 297 297 297 297 297 298 298 299 300 301 301 301 301 301 301 301 301 302 302 302 303 304 304 304 305 306 307 306 305 304 303
Wind_Speed
9 8 8 3 3 3 4 7 8 8 1 5 5 5 3 4 3 3 16 18 25 31 34 30 28 26 24 23 21 18 18 19 18 16 15 14 13 13 14 15 17 16 16 14 13 11 10 9 9
6 6 1 1 3 1 5 9 12 6 2 6 6 2 4 0 3 5 14 22 26 31 34 31 29 27 24 22 21 19 19 20 20 18 15 14 12 12 13 14 15 15 15 13 12 10 9 8 7
8 4 3 4 4 6 5 4 5 2 4 3 2 1 2 4 3 12 8 27 33 30 34 31 29 29 26 22 21 19 19 19 22 18 15 13 12 12 13 13 14 13 13 12 10 9 7 7 6
4 3 3 2 8 7 8 12 6 10 4 2 3 4 3 9 4 15 24 30 32 28 35 31 28 27 26 24 21 19 18 21 22 19 15 14 13 13 13 13 13 12 11 10 9 8 6 5 5
2 2 1 3 7 7 9 12 11 5 3 2 1 3 2 4 12 19 28 30 30 29 34 30 27 25 26 25 23 20 18 20 20 16 15 15 14 13 13 13 11 10 9 9 8 6 5 4 3
3 2 1 5 5 9 8 10 8 7 4 1 4 6 3 10 14 19 26 28 29 30 30 28 27 24 27 26 25 22 21 20 17 15 13 14 14 12 12 12 11 10 8 7 6 4 3 2 2
3 3 3 4 5 6 4 15 9 8 8 4 4 2 4 3 10 16 20 22 30 30 29 28 29 26 26 26 25 25 23 18 16 14 15 13 14 13 12 11 10 10 8 7 5 3 2 1 0
2 3 3 3 4 5 8 9 4 14 5 11 3 4 4 1 10 12 13 14 30 30 30 27 30 28 28 26 26 25 22 19 16 15 16 17 15 13 12 12 11 9 8 7 5 4 3 2 1
4 3 2 5 6 7 7 9 4 6 4 7 10 5 6 7 10 12 14 16 23 24 27 28 29 28 28 28 25 23 22 20 18 17 18 18 18 16 14 14 12 11 9 7 6 5 4 3 2
3 2 1 2 3 5 8 7 10 10 16 6 10 8 19 9 5 2 6 13 16 20 24 28 30 28 29 27 25 24 22 21 20 19 19 19 18 16 16 14 13 11 9 7 6 5 4 3 3
5 3 5 3 8 7 7 9 7 8 8 2 11 23 11 11 5 6 9 13 20 24 23 26 30 29 29 29 27 25 23 22 20 19 19 17 18 16 14 13 12 11 10 8 8 5 3 3 3
3 4 8 7 8 7 6 6 7 7 9 13 14 18 10 10 8 10 10 18 16 28 29 26 30 31 29 28 30 27 24 23 22 19 17 20 18 19 16 16 11 8 9 7 8 6 5 5 6
3 6 10 9 12 8 7 6 5 9 9 12 12 12 17 8 14 19 22 16 20 25 30 32 31 34 34 29 30 29 27 25 24 19 18 19 14 20 16 14 13 11 8 9 8 8 7 8 6
3 5 12 5 7 6 8 5 4 8 10 13 15 12 11 10 13 17 17 21 17 23 28 30 33 32 35 34 31 30 27 27 23 21 21 19 18 16 16 15 14 12 12 10 11 9 10 9 9
4 3 8 4 3 5 6 6 3 6 15 15 15 13 15 16 22 16 18 20 26 24 31 30 28 34 36 34 31 27 26 26 24 24 23 22 19 19 17 16 16 15 14 12 11 11 9 10 11
2 3 6 8 8 4 5 5 7 12 11 14 16 16 16 17 19 20 24 25 20 21 28 35 27 34 34 32 28 23 25 22 25 23 22 21 20 17 19 17 17 15 13 13 12 11 11 10 11
7 4 7 8 5 6 6 7 10 12 12 11 13 18 18 18 19 22 27 29 26 19 25 26 31 37 33 31 28 23 22 25 24 23 21 20 19 21 18 18 16 15 15 15 15 14 14 13 13
5 4 5 6 6 6 7 9 11 14 13 14 14 14 16 17 16 20 24 28 27 18 24 33 21 31 33 31 27 30 26 20 27 24 21 20 20 19 19 17 16 16 16 17 16 17 16 17 17
6 4 7 5 4 3 5 5 11 12 12 15 15 14 15 16 16 19 21 25 24 16 9 27 28 27 33 31 29 29 30 25 20 18 19 21 20 20 20 19 18 17 17 19 18 17 17 19 18
4 2 4 6 3 2 6 4 7 11 10 9 12 15 18 16 13 16 19 21 23 24 21 17 30 31 31 32 30 24 28 33 26 21 21 22 19 20 21 21 21 19 18 20 19 19 21 22 21
3 3 3 7 4 2 7 1 8 8 8 12 11 13 17 16 11 11 17 20 24 26 27 16 16 16 23 28 30 24 24 21 25 28 23 21 22 19 21 21 21 20 20 19 19 20 18 18 19
4 6 6 5 2 2 3 4 4 10 10 14 13 9 12 15 14 13 15 21 23 24 30 19 28 19 14 18 23 25 20 15 20 24 24 22 21 17 18 18 19 19 17 16 8 5 6 10 12
7 7 6 2 1 3 2 2 5 9 11 16 12 11 8 10 12 15 18 20 24 29 34 21 24 37 33 26 20 14 6 4 7 14 14 12 8 5 5 6 7 4 5 9 11 8 9 11 8
7 6 3 3 2 1 5 3 5 8 9 11 9 12 13 12 11 16 23 24 25 28 27 17 31 36 39 38 38 33 27 23 24 19 18 18 16 16 16 14 15 16 14 13 12 10 10 9 9
6 5 3 5 3 3 0 5 4 5 5 3 8 10 11 10 11 13 13 19 22 23 27 17 35 36 28 38 37 34 32 28 28 28 30 21 24 21 21 18 16 15 11 11 10 11 6 6 7
4 1 3 3 1 4 3 1 4 3 4 3 3 2 6 7 7 9 12 18 23 25 18 23 33 35 27 31 38 33 29 24 27 20 23 22 21 14 18 13 10 9 11 8 9 7 7 6 2
4 3 2 1 2 2 2 1 3 3 3 6 6 9 8 8 9 11 17 20 21 17 19 24 27 29 28 29 29 28 27 28 24 19 22 21 15 15 15 11 9 9 6 6 5 4 4 2 2
2 2 1 3 2 3 2 2 3 3 2 5 6 6 7 7 8 6 8 10 12 14 15 23 26 23 23 22 24 24 23 22 21 17 18 15 7 11 7 6 7 7 6 5 4 2 2 2 4
4 2 2 2 4 2 2 4 5 6 5 5 4 5 4 5 6 6 12 17 20 23 26 27 26 23 22 19 18 15 15 17 14 15 14 11 10 10 10 10 8 7 6 6 5 5 4 3 4
1 2 1 3 3 2 1 4 4 6 7 6 4 5 4 5 5 6 11 14 18 20 23 24 24 25 20 15 13 14 13 14 14 13 12 11 11 10 12 11 8 8 7 6 5 4 4 4 5
Wind_Direction
298 307 327 335 47 74 257 264 247 297 292 139 120 84 203 210 205 218 162 171 162 167 169 166 164 161 164 161 164 163 160 151 146 138 131 131 126 127 132 130 125 122 122 118 115 114 111 106 100
323 340 348 68 121 212 270 241 267 266 129 75 64 18 341 231 81 130 135 171 164 168 170 168 167 164 164 168 169 166 166 159 151 143 140 139 132 130 134 134 128 127 125 123 121 118 113 109 105
311 282 95 152 179 200 239 235 311 354 64 103 26 68 269 152 115 151 160 167 161 166 171 171 168 167 169 170 173 171 172 167 153 145 147 140 136 135 135 136 134 133 128 127 126 122 118 113 105
311 27 348 164 222 245 231 287 345 330 8 60 112 312 31 9 145 168 154 166 162 165 172 172 171 171 171 172 174 175 172 169 155 151 150 146 143 143 141 138 134 136 133 134 131 128 124 117 106
242 64 225 238 250 279 267 265 280 231 222 92 47 258 119 87 113 148 157 164 165 163 172 172 174 174 170 174 177 179 173 164 155 156 153 155 154 149 148 147 147 144 143 143 137 133 127 116 100
13 107 94 236 252 261 285 302 322 304 213 144 54 0 341 141 128 155 160 163 168 163 167 173 174 176 174 175 174 172 169 164 161 158 160 163 164 160 156 156 158 154 152 149 145 143 136 123 105
124 91 232 270 273 290 335 332 21 333 343 351 127 72 356 12 140 155 167 160 166 165 170 175 173 174 175 176 175 170 170 171 167 164 167 164 162 168 164 165 167 171 162 164 172 176 174 158 129
93 96 298 271 242 265 351 342 323 23 311 324 51 38 310 323 134 149 173 157 164 168 172 180 174 176 178 176 175 174 174 174 171 170 165 165 168 170 171 173 180 176 178 189 199 206 215 225 243
17 53 283 348 6 313 354 2 355 293 12 324 336 10 87 68 118 148 159 146 166 168 172 177 181 180 177 176 178 179 179 176 174 172 173 172 174 178 181 186 198 192 196 205 216 223 231 234 213
74 122 68 341 23 339 333 18 332 357 342 326 342 23 9 16 45 114 176 152 171 172 174 181 187 188 181 182 181 181 180 178 179 177 181 182 186 189 196 201 202 205 210 215 223 235 245 235 173
346 201 344 3 14 13 342 338 345 350 315 5 317 307 325 322 278 190 209 220 193 190 181 183 188 193 188 187 185 184 183 182 182 184 187 184 183 183 188 196 206 217 223 231 224 222 223 207 226
360 335 10 333 345 331 303 288 305 255 265 286 297 296 303 307 291 245 222 220 214 196 197 186 190 191 196 194 189 187 188 187 185 189 185 179 191 198 201 199 206 220 223 217 211 221 235 243 254
21 338 325 323 307 285 271 263 246 285 307 291 277 274 293 276 284 291 254 238 226 203 199 196 193 197 193 192 190 193 197 195 193 189 187 189 201 194 201 211 213 214 217 210 219 229 238 241 246
301 306 289 302 302 328 350 309 43 341 321 340 354 333 296 331 320 309 250 236 233 217 205 200 196 195 195 191 193 195 199 199 196 195 194 199 203 189 196 205 212 219 222 225 224 234 240 245 250
274 315 330 124 342 19 10 318 60 327 354 6 6 357 346 340 342 342 334 318 254 233 213 210 204 194 198 193 192 195 198 194 198 196 198 206 215 213 213 213 215 219 222 224 232 226 239 253 254
296 31 3 325 5 12 56 279 339 355 11 1 356 351 351 342 329 339 334 334 325 249 225 216 207 191 182 183 183 187 193 199 197 195 201 209 213 214 213 216 219 221 223 219 224 234 243 249 250
24 332 334 328 49 8 57 311 346 11 10 356 6 350 342 333 333 341 336 337 328 272 244 204 198 192 187 185 186 190 195 200 197 200 205 211 215 216 218 219 223 220 223 228 227 235 240 247 253
333 339 315 303 335 14 352 2 15 8 6 356 9 346 333 330 338 345 344 342 332 300 246 207 194 183 193 195 201 201 198 187 201 202 210 210 216 218 221 224 224 223 233 232 236 241 243 246 248
217 285 299 275 300 327 333 354 349 4 1 10 354 341 329 334 335 348 0 357 347 341 244 198 196 190 186 186 192 196 199 203 203 198 209 217 215 221 223 228 229 230 233 240 243 242 248 248 248
257 250 285 299 337 329 345 13 9 5 7 18 358 344 338 339 347 359 10 4 6 4 11 192 180 185 185 183 186 196 203 208 211 215 215 215 219 225 221 226 228 229 235 247 247 244 246 251 245
272 179 247 236 311 92 328 156 5 358 345 351 353 354 336 336 354 2 13 9 17 12 19 12 144 186 180 189 193 197 202 202 215 217 224 222 226 226 222 227 232 234 239 249 252 253 251 257 265
299 188 190 309 359 315 67 310 1 352 345 348 351 351 335 344 5 11 13 13 13 11 35 1 68 94 117 177 189 191 190 186 206 218 221 227 231 234 225 230 238 243 245 249 261 269 306 282 289
248 306 282 203 344 266 305 356 309 6 350 342 354 360 4 360 11 2 9 16 20 24 36 4 53 69 81 91 89 82 103 158 203 214 217 200 184 223 199 148 137 131 131 99 88 59 31 34 32
276 300 281 143 201 47 261 119 320 4 333 343 0 17 3 19 19 20 16 20 19 31 37 8 39 53 61 74 73 66 55 69 78 78 94 114 110 99 88 94 99 76 69 74 71 58 59 40 38
21 26 351 5 26 250 50 63 227 274 301 359 14 25 18 12 12 15 16 17 17 16 32 24 53 46 52 62 70 66 61 56 64 69 69 57 79 74 72 66 70 79 67 59 59 50 48 59 52
295 91 151 188 321 270 16 354 277 241 256 193 319 360 47 27 23 35 29 29 18 12 1 42 54 56 48 57 62 63 64 57 60 64 75 62 60 68 67 52 51 59 55 39 45 350 6 355 335
330 58 228 110 30 44 197 348 313 155 87 63 36 9 34 22 25 24 15 15 24 27 17 38 46 50 49 52 60 65 60 58 57 56 63 61 51 54 59 46 21 32 29 23 21 352 317 271 207
249 247 57 5 44 301 286 179 227 184 101 54 56 25 3 21 28 34 37 43 35 37 41 53 54 45 49 45 43 49 58 56 50 44 54 58 42 52 49 38 27 27 20 29 33 40 41 72 80
335 346 339 154 140 258 303 250 209 168 157 125 85 73 60 30 30 30 29 30 45 42 41 46 50 51 49 48 55 55 60 70 73 68 61 60 53 59 63 65 56 48 43 53 59 66 76 79 90
275 282 269 120 293 250 211 268 153 151 148 138 120 95 81 58 46 45 47 48 49 53 49 48 47 54 54 59 66 66 62 66 68 73 75 75 70 64 62 62 64 65 58 58 69 80 91 107 97